Location: ??
(35.2398°N, 139.6986°E)
Time: 00:51:23
(UTC+00:00)

Daily predictions for brighter satellites

Satellite Brightness Start Highest point End
(mag) Time Altitude Azimuth Time Altitude Azimuth Time Altitude Azimuth
Cosmos 1725 Rocket 4.2 07:59:05 10° SSE 08:05:03 51° E 08:11:06 10° NNE
SJ-12 4.1 08:01:38 10° SE 08:05:15 42° ENE 08:08:51 10° N
YAOGAN 1 4.3 08:04:02 10° E 08:05:35 12° ENE 08:07:07 10° NE
Cosmos 1025 Rocket 3.5 08:04:29 10° N 08:08:32 38° E 08:12:31 10° SSE
ARIANE 6 FM1 Upper Stage 4.1 08:06:50 10° WSW 08:10:32 34° NW 08:14:11 10° NNE
IGS 5A 4.0 08:08:01 10° S 08:11:56 60° W 08:15:52 10° NNW
Cosmos 1802 Rocket 4.1 08:06:44 10° S 08:13:02 69° E 08:19:26 10° NNE
SL-16 R/B 4.2 08:09:08 10° N 08:14:41 35° WNW 08:20:13 10° SW
Cosmos 2233 Rocket 4.4 08:10:21 10° SSE 08:16:09 42° E 08:21:59 10° NNE
MOS 1 Rocket 3.6 08:17:36 10° SE 08:21:26 34° ENE 08:25:17 10° N
Cosmos 1378 Rocket 4.0 08:17:55 10° NNW 08:22:12 66° W 08:26:29 10° S
Cosmos 2173 Rocket 4.5 08:17:42 10° SSW 08:23:56 67° W 08:30:07 10° N
Meteor 1-11 4.3 08:19:11 10° N 08:24:56 88° E 08:30:34 10° S
Cosmos 1782 Rocket 4.1 08:22:04 10° SSE 08:26:08 37° E 08:30:14 10° NNE
NOSS 3-4 (A) 4.4 08:20:38 10° NNW 08:27:06 37° NE 08:34:30 10° ESE
NOSS 3-4 (C) 4.4 08:20:43 10° NNW 08:27:10 37° NE 08:34:32 10° ESE
SL-08 R/B 4.5 08:21:19 10° S 08:27:23 63° E 08:33:24 10° NNE
Delta 2 Rocket 3.1 08:28:20 10° WSW 08:32:21 82° S 08:35:14 17° E
IRS-P3 4.1 08:27:48 10° SSE 08:33:05 72° ENE 08:38:24 10° N
Tsikada Rocket 4.3 08:30:07 10° N 08:36:15 45° E 08:42:19 10° SSE
CZ-4C R/B 3.2 08:32:48 10° WSW 08:36:24 31° NW 08:40:45 10° NNE
Cosmos 1441 Rocket 3.6 08:33:49 10° NNE 08:36:48 29° ENE 08:39:45 10° SE
COSMO-SKYMED 1 2.8 08:33:09 10° NNE 08:37:05 42° E 08:40:58 10° S
SKYMED 2 3.5 08:35:59 10° NNE 08:40:20 71° E 08:44:39 10° S
Cosmos 1908 Rocket 4.1 08:37:30 10° SSW 08:41:50 63° W 08:46:13 10° N
CZ-2D R/B 4.1 08:40:08 10° S 08:43:10 43° W 08:46:13 10° NNW
SPOT 1/Viking Rocket 3.7 08:38:30 10° SE 08:43:25 48° ENE 08:48:21 10° N
ARIANE 5 R/B 3.1 08:39:24 10° S 08:44:19 58° WSW 08:49:14 10° NNW
Cosmos 1300 Rocket 3.4 08:42:00 10° S 08:46:22 75° E 08:50:46 10° N
Cosmos 1943 Rocket 3.6 08:45:03 10° SE 08:48:20 17° ESE 08:48:20 17° ESE
USA 281 4.3 08:47:07 19° ENE 08:48:52 21° NE 08:53:29 10° N
Cosmos 1140 Rocket 3.7 08:47:01 10° S 08:52:00 49° ESE 08:56:46 11° NNE
Cosmos 1975 Rocket 3.7 08:49:40 10° NNE 08:53:28 30° ENE 08:57:17 10° SE
Cosmos 2016 Rocket 4.5 08:48:54 10° SSW 08:55:02 65° W 09:01:18 10° N
Geosat 4.2 08:50:40 10° SE 08:55:26 47° ENE 09:00:13 10° NNW
Cosmos 2221 Rocket 4.2 08:52:16 10° NNW 08:56:43 61° W 09:01:06 10° S
IRAS Rocket 4.2 08:51:29 10° SSE 08:56:59 60° ENE 09:02:27 10° N
Cosmos 2084 Rocket 3.4 08:58:14 10° SSW 09:02:19 57° ESE 09:03:54 34° NE
SJ-7 4.0 09:00:50 10° SSE 09:04:28 62° ENE 09:08:07 10° N
Cosmos 1869 4.1 09:01:49 10° SSE 09:03:54 27° SE 09:03:54 27° SE
Helios 1A Rocket 3.0 09:02:13 10° N 09:05:32 58° WNW 09:08:51 10° SSW
ATLAS CENTAUR R/B 2.9 09:05:11 10° WSW 09:08:08 26° NW 09:11:00 11° N
SL-19 R/B 4.0 09:03:16 10° SSE 09:08:35 64° ENE 09:13:46 10° N
Cosmos 1833 Rocket 3.2 09:07:46 10° N 09:12:53 34° ENE 09:13:07 34° ENE
PSLV R/B 3.2 09:10:33 10° SSE 09:14:38 75° ENE 09:18:41 10° N
Cosmos 2061 Rocket 4.3 09:09:53 10° SSW 09:16:12 68° W 09:22:30 10° N
Aureole 3 Rocket 4.0 09:15:35 10° S 09:17:38 26° SSE 09:17:38 26° SSE
Spot 4 Rocket 4.1 09:19:23 10° S 09:24:27 76° WSW 09:29:33 10° NNW
Resurs 1-3 3.6 09:25:09 10° S 09:29:25 79° WSW 09:33:45 10° NNW
Cosmos 407 Rocket 3.4 09:29:23 10° S 09:34:32 62° ESE 09:34:34 62° ESE
SL-12 R/B(2) 4.0 09:31:13 10° SSW 09:38:45 82° ESE 09:44:47 23° NE
Tiangong 0.3 09:36:40 10° NW 09:37:53 19° NW 09:37:53 19° NW
YAOGAN 1 3.3 09:36:48 10° S 09:40:55 51° W 09:45:05 10° NNW
NOAA 6 4.0 09:39:10 10° S 09:44:19 79° WSW 09:49:29 10° NNW
OAO 2 Rocket 4.2 09:50:39 10° SW 09:54:33 41° SSW 09:54:33 41° SSW
Cosmos 2278 Rocket 2.6 09:50:36 10° SSW 09:54:46 50° S 09:54:46 50° S
Cosmos 1464 Rocket 3.9 09:57:00 10° S 10:03:22 89° E 10:04:25 65° N
Cosmos 1943 Rocket 3.4 10:26:21 10° SW 10:29:55 37° WSW 10:29:55 37° WSW
USA 281 3.6 10:34:01 57° NW 10:34:01 57° NW 10:39:16 10° NNW
